Morrisville, VT

6:08 AM EDT on May 28, 2017 (GMT -0400)
Morrisville Stowe State

Weather History for KMVL - August, 2014

Change the Weather History Date:

Saturday, August 9, 2014

  Actual Average Record
Temperature  
Mean Temperature 66 °F 66 °F  
Max Temperature 81 °F 79 °F 93 °F (2001)
Min Temperature 51 °F 54 °F 46 °F (2002)
Cooling Degree Days 1 3  
Month to date cooling degree days 25 27  
Year to date cooling degree days 179 195  
Since 1 June cooling degree days 174 187  
Growing Degree Days 16 (Base 50)    
Moisture  
Dew Point 53 °F    
Average Humidity 68    
Maximum Humidity 100    
Minimum Humidity 35    
Precipitation  
Precipitation 0.00 in 0.13 in 0.84 in (2010)
Month to date precipitation 0.97 1.29  
Year to date precipitation 24.62 21.02  
Sea Level Pressure  
Sea Level Pressure 30.12 in    
Wind  
Wind Speed 3 mph (NNW)    
Max Wind Speed 12 mph    
Max Gust Speed 17 mph    
Visibility 8 miles    
Events Fog    
T = Trace of Precipitation, MM = Missing Value Source: NWS Daily Summary

Daily Weather History Graph

Daily Weather History Graph

Search for Another Location

Airport or City:

Trip Planner

Search our weather history database for the weather conditions in past years. The results will help you decide how hot, cold, wet, or windy it might be!

Date:

Astronomy

Aug. 09, 2014 Rise Set
Actual Time 5:46 AM EDT 8:04 PM EDT
Civil Twilight 5:13 AM EDT 8:37 PM EDT
Nautical Twilight 4:33 AM EDT 9:17 PM EDT
Astronomical Twilight 3:48 AM EDT 10:01 PM EDT
Moon 7:03 PM EDT (8/9) 4:23 AM EDT (8/9)
Length of Visible Light 15h 23m
Length of Day
14h 18m
Waxing Gibbous, 98% of the Moon is Illuminated
Aug 9
Waxing Gibbous
Aug 10
Full
Aug 17
Last Quarter
Aug 25
New
Sep 2
First Quarter

Hourly Weather History & Observations

Time (EDT) Temp. Dew Point Humidity Pressure Visibility Wind Dir Wind Speed Gust Speed Precip Events Conditions
1:54 AM 55.0 °F 53.1 °F 93% 30.09 in 10.0 mi Calm Calm - N/A   Partly Cloudy
2:54 AM 54.0 °F 52.0 °F 93% 30.09 in 10.0 mi Calm Calm - N/A   Clear
3:39 AM 53.1 °F 51.1 °F 93% 30.09 in 10.0 mi Calm Calm - N/A   Scattered Clouds
3:54 AM 53.1 °F 51.1 °F 93% 30.09 in 10.0 mi Calm Calm - N/A   Mostly Cloudy
4:52 AM 51.8 °F 50.0 °F 94% 30.09 in 10.0 mi Calm Calm - N/A   Scattered Clouds
4:54 AM 52.0 °F 50.0 °F 93% 30.10 in 10.0 mi Calm Calm - N/A   Scattered Clouds
5:39 AM 52.0 °F 50.0 °F 93% 30.11 in 2.5 mi Calm Calm - N/A   Mostly Cloudy
5:54 AM 51.1 °F 50.0 °F 96% 30.12 in 0.2 mi Calm Calm - N/A Fog Fog
6:19 AM 51.1 °F 50.0 °F 96% 30.12 in 1.2 mi Calm Calm - N/A   Overcast
6:22 AM 51.1 °F 50.0 °F 96% 30.12 in 3.0 mi Calm Calm - N/A   Overcast
6:36 AM 51.1 °F 50.0 °F 96% 30.13 in 2.0 mi Calm Calm - N/A   Overcast
6:52 AM 51.8 °F 51.8 °F 100% 30.13 in 1.2 mi Calm Calm - N/A   Overcast
6:54 AM 52.0 °F 52.0 °F 100% 30.14 in 1.5 mi Calm Calm - N/A   Overcast
6:59 AM 53.1 °F 52.0 °F 96% 30.13 in 4.0 mi Calm Calm - N/A   Overcast
7:09 AM 54.0 °F 53.1 °F 97% 30.13 in 10.0 mi Calm Calm - N/A   Overcast
7:54 AM 57.0 °F 55.0 °F 93% 30.15 in 10.0 mi Calm Calm - N/A   Scattered Clouds
8:54 AM 63.0 °F 57.0 °F 81% 30.15 in 10.0 mi North 3.5 mph - N/A   Partly Cloudy
9:54 AM 68.0 °F 57.9 °F 70% 30.15 in 10.0 mi NNE 4.6 mph - N/A   Clear
10:54 AM 73.9 °F 57.0 °F 55% 30.15 in 10.0 mi Variable 6.9 mph - N/A   Clear
11:54 AM 77.0 °F 57.9 °F 52% 30.13 in 10.0 mi NNW 8.1 mph - N/A   Clear
1:54 PM 79.0 °F 55.0 °F 44% 30.11 in 10.0 mi NW 11.5 mph - N/A   Partly Cloudy
2:54 PM 78.1 °F 53.1 °F 42% 30.11 in 10.0 mi NNW 4.6 mph - N/A   Mostly Cloudy
3:54 PM 80.1 °F 50.0 °F 35% 30.10 in 10.0 mi NNW 10.4 mph - N/A   Clear
4:54 PM 79.0 °F 53.1 °F 40% 30.11 in 10.0 mi Variable 6.9 mph - N/A   Clear
5:54 PM 78.1 °F 54.0 °F 43% 30.11 in 10.0 mi NW 5.8 mph - N/A   Clear
6:54 PM 75.0 °F 54.0 °F 48% 30.12 in 10.0 mi NNW 5.8 mph - N/A   Clear
7:54 PM 68.0 °F 55.9 °F 65% 30.13 in 10.0 mi Calm Calm - N/A   Clear
8:54 PM 62.1 °F 57.0 °F 84% 30.14 in 10.0 mi SSW 3.5 mph - N/A   Clear
9:54 PM 59.0 °F 55.0 °F 87% 30.15 in 10.0 mi Calm Calm - N/A   Clear
10:54 PM 57.9 °F 54.0 °F 87% 30.16 in 10.0 mi Calm Calm - N/A   Clear
11:54 PM 55.9 °F 53.1 °F 90% 30.17 in 10.0 mi Calm Calm - N/A   Clear